Starlink 3858

operational
NORAD ID: 52553 Int'l Des: 2022-051 Owner: SPXS Country: US Constellation: starlink
LEOCIRCULAR

Starlink 3858について

説明を読み込み中...

リアルタイム位置

3D地球を読み込み中...

次回通過

高度履歴

Altitude vs Time

uPlot chart will show altitude changes over time

軌道要素

1 52553U 22051W 25347.65683575 .00001233 00000-0 95548-4 0 9990
2 52553 53.2166 154.9955 0001209 87.5037 272.6094 15.08835501198469
Epoch: Dec 13, 2025 • Age: 20 hours

現在のステータス

高度 558.6 km
速度 7.58 km/s
衛星直下点 -51.85°S, 175.33°E
打ち上げ日 May 13, 2022
運用期間 3.5 years
タイプ internet

技術仕様

分類 Payload
質量 297.00 kg
乾燥質量 275.00 kg
総質量 297.00 kg
長さ 0.20 m
直径 2.80 m
スパン 9.00 m
形状 Box + pan
製造者 SPXS
バスタイプ Starlink
フェーズステータス In Orbit
所有者/国 SPXS/US

大規模コンステレーション

Loading constellations...